Time,TemperatureF,DewpointF,PressureIn,WindDirection,WindDirectionDegrees,WindSpeedMPH,WindSpeedGustMPH,Humidity,HourlyPrecipIn,Conditions,Clouds,dailyrainin,SoftwareType,DateUTC
2013-08-31 00:02:00,70.4,69.5,30.64,South,190,2.0,5.0,97,0.00,CLR,CLR,0.00,WeatherDisplay:10.37,2013-08-31 04:02:00,
2013-08-31 00:07:00,70.5,69.6,30.64,South,191,3.0,6.0,97,0.00,CLR,CLR,0.00,WeatherDisplay:10.37,2013-08-31 04:07:00,
2013-08-31 00:12:00,70.6,69.8,30.64,SSW,192,2.0,4.0,97,0.00,CLR,CLR,0.00,WeatherDisplay:10.37,2013-08-31 04:12:00,
2013-08-31 00:17:00,70.8,69.6,30.64,SSW,192,1.0,3.0,96,0.00,CLR,CLR,0.00,WeatherDisplay:10.37,2013-08-31 04:17:00,
2013-08-31 00:22:00,70.8,69.6,30.64,SSW,192,0.0,1.0,96,0.00,CLR,CLR,0.00,WeatherDisplay:10.37,2013-08-31 04:22:00,
2013-08-31 00:27:00,70.8,69.6,30.64,SSW,192,0.0,4.0,96,0.00,CLR,CLR,0.00,WeatherDisplay:10.37,2013-08-31 04:27:00,
2013-08-31 00:32:00,70.7,69.5,30.64,SSW,192,0.0,2.0,96,0.00,CLR,CLR,0.00,WeatherDisplay:10.37,2013-08-31 04:32:00,
2013-08-31 00:37:00,70.7,69.5,30.65,SSW,192,0.0,0.0,96,0.00,CLR,CLR,0.00,WeatherDisplay:10.37,2013-08-31 04:37:00,
2013-08-31 00:42:00,70.6,69.4,30.65,SSW,192,0.0,0.0,96,0.00,CLR,CLR,0.00,WeatherDisplay:10.37,2013-08-31 04:42:00,
2013-08-31 00:47:00,70.6,69.4,30.65,SSW,192,0.0,0.0,96,0.00,CLR,CLR,0.00,WeatherDisplay:10.37,2013-08-31 04:47:00,
2013-08-31 00:52:00,70.6,69.4,30.65,SSW,192,0.0,0.0,96,0.00,CLR,CLR,0.00,WeatherDisplay:10.37,2013-08-31 04:52:00,
2013-08-31 00:57:00,70.6,69.4,30.64,SSW,192,0.0,0.0,96,0.00,CLR,CLR,0.00,WeatherDisplay:10.37,2013-08-31 04:57:00,
2013-08-31 01:02:00,70.6,69.4,30.64,SSW,192,0.0,0.0,96,0.00,CLR,CLR,0.00,WeatherDisplay:10.37,2013-08-31 05:02:00,
2013-08-31 01:07:00,70.5,69.3,30.64,SSW,192,0.0,1.0,96,0.00,CLR,CLR,0.00,WeatherDisplay:10.37,2013-08-31 05:07:00,
2013-08-31 01:12:00,70.6,69.4,30.64,SSW,192,0.0,3.0,96,0.00,CLR,CLR,0.00,WeatherDisplay:10.37,2013-08-31 05:12:00,
2013-08-31 01:17:00,70.7,69.5,30.64,SSW,192,0.0,0.0,96,0.00,CLR,CLR,0.00,WeatherDisplay:10.37,2013-08-31 05:17:00,
2013-08-31 01:22:00,70.7,69.5,30.63,SSW,192,0.0,1.0,96,0.00,CLR,CLR,0.00,WeatherDisplay:10.37,2013-08-31 05:22:00,
2013-08-31 01:27:00,70.9,69.7,30.63,SSW,192,0.0,4.0,96,0.00,CLR,CLR,0.00,WeatherDisplay:10.37,2013-08-31 05:27:00,
2013-08-31 01:32:00,71.0,69.8,30.63,South,190,2.0,6.0,96,0.00,CLR,CLR,0.00,WeatherDisplay:10.37,2013-08-31 05:32:00,
2013-08-31 01:37:00,71.2,70.0,30.63,South,179,2.0,6.0,96,0.00,CLR,CLR,0.00,WeatherDisplay:10.37,2013-08-31 05:37:00,
2013-08-31 01:42:00,71.4,70.2,30.63,South,169,3.0,6.0,96,0.00,CLR,CLR,0.00,WeatherDisplay:10.37,2013-08-31 05:42:00,
2013-08-31 01:47:00,71.5,70.3,30.63,South,169,1.0,5.0,96,0.00,CLR,CLR,0.00,WeatherDisplay:10.37,2013-08-31 05:47:00,
2013-08-31 01:52:00,71.5,70.3,30.62,South,169,0.0,1.0,96,0.00,CLR,CLR,0.00,WeatherDisplay:10.37,2013-08-31 05:52:00,
2013-08-31 01:57:00,71.5,70.3,30.62,South,169,2.0,6.0,96,0.00,CLR,CLR,0.00,WeatherDisplay:10.37,2013-08-31 05:57:00,
2013-08-31 02:02:00,71.6,70.1,30.62,South,169,1.0,5.0,95,0.00,CLR,CLR,0.00,WeatherDisplay:10.37,2013-08-31 06:02:00,
2013-08-31 02:07:00,71.6,70.1,30.62,South,169,1.0,6.0,95,0.00,CLR,CLR,0.00,WeatherDisplay:10.37,2013-08-31 06:07:00,
2013-08-31 02:12:00,71.6,70.1,30.63,South,169,1.0,5.0,95,0.00,CLR,CLR,0.00,WeatherDisplay:10.37,2013-08-31 06:12:00,
2013-08-31 02:17:00,71.6,70.1,30.63,South,169,0.0,2.0,95,0.00,CLR,CLR,0.00,WeatherDisplay:10.37,2013-08-31 06:17:00,
2013-08-31 02:22:00,71.5,70.0,30.63,South,169,0.0,5.0,95,0.00,CLR,CLR,0.00,WeatherDisplay:10.37,2013-08-31 06:22:00,
2013-08-31 02:27:00,71.5,70.0,30.63,South,169,0.0,4.0,95,0.00,CLR,CLR,0.00,WeatherDisplay:10.37,2013-08-31 06:27:00,
2013-08-31 02:32:00,71.4,69.9,30.63,South,169,0.0,0.0,95,0.00,CLR,CLR,0.00,WeatherDisplay:10.37,2013-08-31 06:32:00,
2013-08-31 02:37:00,71.4,69.9,30.62,South,169,0.0,1.0,95,0.00,CLR,CLR,0.00,WeatherDisplay:10.37,2013-08-31 06:37:00,
2013-08-31 02:42:00,71.4,69.9,30.63,South,169,0.0,4.0,95,0.00,CLR,CLR,0.00,WeatherDisplay:10.37,2013-08-31 06:42:00,
2013-08-31 02:47:00,71.4,69.9,30.65,West,263,5.0,6.0,95,0.00,CLR,CLR,0.00,WeatherDisplay:10.37,2013-08-31 06:47:00,
2013-08-31 02:52:00,71.4,69.9,30.64,North,357,2.0,9.0,95,0.00,CLR,CLR,0.00,WeatherDisplay:10.37,2013-08-31 06:52:00,
2013-08-31 02:57:00,71.4,69.9,30.64,North,4,0.0,1.0,95,0.00,CLR,CLR,0.00,WeatherDisplay:10.37,2013-08-31 06:57:00,
2013-08-31 03:02:00,71.4,69.9,30.64,NNE,13,0.0,2.0,95,0.00,CLR,CLR,0.00,WeatherDisplay:10.37,2013-08-31 07:02:00,
2013-08-31 03:07:00,71.3,69.8,30.64,NNE,13,0.0,0.0,95,0.00,CLR,CLR,0.00,WeatherDisplay:10.37,2013-08-31 07:07:00,
2013-08-31 03:12:00,71.2,69.7,30.64,NNE,13,0.0,0.0,95,0.00,CLR,CLR,0.00,WeatherDisplay:10.37,2013-08-31 07:12:00,
2013-08-31 03:17:00,71.2,69.7,30.64,NNE,13,0.0,0.0,95,0.00,CLR,CLR,0.00,WeatherDisplay:10.37,2013-08-31 07:17:00,
2013-08-31 03:22:00,71.1,69.9,30.64,NNE,13,0.0,9.0,96,0.00,CLR,CLR,0.00,WeatherDisplay:10.37,2013-08-31 07:22:00,
2013-08-31 03:27:00,71.0,69.8,30.63,NNE,13,0.0,0.0,96,0.00,CLR,CLR,0.00,WeatherDisplay:10.37,2013-08-31 07:27:00,
2013-08-31 03:32:00,70.9,69.7,30.63,NNE,13,0.0,1.0,96,0.00,CLR,CLR,0.00,WeatherDisplay:10.37,2013-08-31 07:32:00,
2013-08-31 03:37:00,70.8,69.6,30.61,NNE,13,0.0,1.0,96,0.00,CLR,CLR,0.00,WeatherDisplay:10.37,2013-08-31 07:37:00,
2013-08-31 03:42:00,70.8,69.6,30.61,NNE,13,0.0,2.0,96,0.00,CLR,CLR,0.00,WeatherDisplay:10.37,2013-08-31 07:42:00,
2013-08-31 03:47:00,70.8,69.6,30.62,NNE,14,3.0,5.0,96,0.00,CLR,CLR,0.00,WeatherDisplay:10.37,2013-08-31 07:47:00,
2013-08-31 03:52:00,70.7,69.5,30.61,ENE,75,3.0,5.0,96,0.00,CLR,CLR,0.00,WeatherDisplay:10.37,2013-08-31 07:52:00,
2013-08-31 03:57:00,70.7,69.5,30.61,SSE,167,1.0,4.0,96,0.00,CLR,CLR,0.00,WeatherDisplay:10.37,2013-08-31 07:57:00,
2013-08-31 04:02:00,70.7,69.5,30.60,South,176,0.0,2.0,96,0.00,CLR,CLR,0.00,WeatherDisplay:10.37,2013-08-31 08:02:00,
2013-08-31 04:07:00,70.8,69.6,30.60,South,176,0.0,2.0,96,0.00,CLR,CLR,0.00,WeatherDisplay:10.37,2013-08-31 08:07:00,
2013-08-31 04:12:00,70.9,69.7,30.59,South,176,1.0,4.0,96,0.00,CLR,CLR,0.00,WeatherDisplay:10.37,2013-08-31 08:12:00,
2013-08-31 04:17:00,71.0,69.8,30.59,South,176,0.0,4.0,96,0.00,CLR,CLR,0.00,WeatherDisplay:10.37,2013-08-31 08:17:00,
2013-08-31 04:22:00,71.1,69.6,30.59,SE,139,1.0,6.0,95,0.00,CLR,CLR,0.00,WeatherDisplay:10.37,2013-08-31 08:22:00,
2013-08-31 04:27:00,71.3,69.8,30.59,SE,130,1.0,4.0,95,0.00,CLR,CLR,0.00,WeatherDisplay:10.37,2013-08-31 08:27:00,
2013-08-31 04:32:00,71.3,69.5,30.60,SE,129,0.0,1.0,94,0.00,CLR,CLR,0.00,WeatherDisplay:10.37,2013-08-31 08:32:00,
2013-08-31 04:37:00,71.2,69.4,30.61,SE,129,0.0,1.0,94,0.00,CLR,CLR,0.00,WeatherDisplay:10.37,2013-08-31 08:37:00,
2013-08-31 04:42:00,71.1,69.3,30.61,SE,129,0.0,1.0,94,0.00,CLR,CLR,0.00,WeatherDisplay:10.37,2013-08-31 08:42:00,
2013-08-31 04:47:00,71.0,69.5,30.61,SE,129,0.0,0.0,95,0.00,CLR,CLR,0.00,WeatherDisplay:10.37,2013-08-31 08:47:00,
2013-08-31 04:52:00,70.9,69.3,30.60,SE,129,0.0,1.0,95,0.00,CLR,CLR,0.00,WeatherDisplay:10.37,2013-08-31 08:52:00,
2013-08-31 04:57:00,70.8,69.3,30.60,SE,129,0.0,1.0,95,0.00,CLR,CLR,0.00,WeatherDisplay:10.37,2013-08-31 08:57:00,
2013-08-31 05:02:00,70.7,69.2,30.60,SE,129,0.0,1.0,95,0.00,CLR,CLR,0.00,WeatherDisplay:10.37,2013-08-31 09:02:00,
2013-08-31 05:07:00,70.7,69.2,30.60,SE,129,0.0,0.0,95,0.00,CLR,CLR,0.00,WeatherDisplay:10.37,2013-08-31 09:07:00,
2013-08-31 05:12:00,70.6,69.1,30.61,SE,129,0.0,1.0,95,0.00,CLR,CLR,0.00,WeatherDisplay:10.37,2013-08-31 09:12:00,
2013-08-31 05:17:00,70.5,69.0,30.61,SE,129,0.0,0.0,95,0.00,CLR,CLR,0.00,WeatherDisplay:10.37,2013-08-31 09:17:00,
2013-08-31 05:22:00,70.4,68.9,30.61,SE,129,0.0,0.0,95,0.00,CLR,CLR,0.00,WeatherDisplay:10.37,2013-08-31 09:22:00,
2013-08-31 05:27:00,70.3,69.1,30.61,SE,129,0.0,0.0,96,0.00,CLR,CLR,0.00,WeatherDisplay:10.37,2013-08-31 09:27:00,
2013-08-31 05:32:00,70.2,69.0,30.61,SE,129,0.0,0.0,96,0.00,CLR,CLR,0.00,WeatherDisplay:10.37,2013-08-31 09:32:00,
2013-08-31 05:37:00,69.9,68.4,30.61,SE,129,0.0,0.0,95,0.00,CLR,CLR,0.00,WeatherDisplay:10.37,2013-08-31 09:37:00,
2013-08-31 05:42:00,69.5,68.0,30.61,SE,129,0.0,0.0,95,0.00,CLR,CLR,0.00,WeatherDisplay:10.37,2013-08-31 09:42:00,
2013-08-31 05:47:00,69.2,68.1,30.61,SE,129,0.0,0.0,96,0.00,CLR,CLR,0.00,WeatherDisplay:10.37,2013-08-31 09:47:00,
2013-08-31 05:52:00,69.2,68.0,30.61,SE,129,0.0,0.0,96,0.00,CLR,CLR,0.00,WeatherDisplay:10.37,2013-08-31 09:52:00,
2013-08-31 05:57:00,69.2,68.0,30.61,SE,129,0.0,0.0,96,0.00,CLR,CLR,0.00,WeatherDisplay:10.37,2013-08-31 09:57:00,
2013-08-31 06:02:00,69.1,67.9,30.61,SE,129,0.0,0.0,96,0.00,CLR,CLR,0.00,WeatherDisplay:10.37,2013-08-31 10:02:00,
2013-08-31 06:07:00,69.1,67.9,30.62,SE,129,0.0,0.0,96,0.00,CLR,CLR,0.00,WeatherDisplay:10.37,2013-08-31 10:07:00,
2013-08-31 06:12:00,69.1,67.9,30.62,SE,129,0.0,0.0,96,0.00,CLR,CLR,0.00,WeatherDisplay:10.37,2013-08-31 10:12:00,
2013-08-31 06:17:00,69.1,68.2,30.62,SE,129,0.0,0.0,97,0.00,CLR,CLR,0.00,WeatherDisplay:10.37,2013-08-31 10:17:00,
2013-08-31 06:22:00,69.0,67.8,30.62,SE,129,0.0,0.0,96,0.00,CLR,CLR,0.00,WeatherDisplay:10.37,2013-08-31 10:22:00,
2013-08-31 06:27:00,68.7,67.6,30.62,SE,129,0.0,0.0,96,0.00,CLR,CLR,0.00,WeatherDisplay:10.37,2013-08-31 10:27:00,
2013-08-31 06:32:00,68.6,67.4,30.62,SE,129,0.0,0.0,96,0.00,CLR,CLR,0.00,WeatherDisplay:10.37,2013-08-31 10:32:00,
2013-08-31 06:37:00,68.5,67.3,30.62,SE,129,0.0,0.0,96,0.00,CLR,CLR,0.00,WeatherDisplay:10.37,2013-08-31 10:37:00,
2013-08-31 06:42:00,68.6,67.7,30.62,SE,129,0.0,1.0,97,0.00,CLR,CLR,0.00,WeatherDisplay:10.37,2013-08-31 10:42:00,
2013-08-31 06:47:00,68.7,67.8,30.63,SE,129,0.0,0.0,97,0.00,CLR,CLR,0.00,WeatherDisplay:10.37,2013-08-31 10:47:00,
2013-08-31 06:52:00,68.7,67.8,30.63,SE,129,0.0,0.0,97,0.00,CLR,CLR,0.00,WeatherDisplay:10.37,2013-08-31 10:52:00,
2013-08-31 06:57:00,68.7,67.8,30.64,SE,129,0.0,0.0,97,0.00,CLR,CLR,0.00,WeatherDisplay:10.37,2013-08-31 10:57:00,
2013-08-31 07:02:00,68.5,67.6,30.63,SE,129,0.0,0.0,97,0.00,CLR,CLR,0.00,WeatherDisplay:10.37,2013-08-31 11:02:00,
2013-08-31 07:07:00,68.3,67.4,30.63,SE,129,0.0,0.0,97,0.00,CLR,CLR,0.00,WeatherDisplay:10.37,2013-08-31 11:07:00,
2013-08-31 07:12:00,68.1,67.2,30.63,SE,129,0.0,0.0,97,0.00,CLR,CLR,0.00,WeatherDisplay:10.37,2013-08-31 11:12:00,
2013-08-31 07:17:00,68.1,67.2,30.63,SE,129,0.0,0.0,97,0.00,CLR,CLR,0.00,WeatherDisplay:10.37,2013-08-31 11:17:00,
2013-08-31 07:22:00,68.1,67.2,30.63,SE,129,0.0,0.0,97,0.00,CLR,CLR,0.00,WeatherDisplay:10.37,2013-08-31 11:22:00,
2013-08-31 07:27:00,68.0,67.1,30.63,SE,129,0.0,0.0,97,0.00,CLR,CLR,0.00,WeatherDisplay:10.37,2013-08-31 11:27:00,
2013-08-31 07:32:00,67.9,67.0,30.63,SE,129,0.0,0.0,97,0.00,CLR,CLR,0.00,WeatherDisplay:10.37,2013-08-31 11:32:00,
2013-08-31 07:37:00,67.6,66.7,30.64,SE,129,0.0,0.0,97,0.00,CLR,CLR,0.00,WeatherDisplay:10.37,2013-08-31 11:37:00,
2013-08-31 07:42:00,67.4,66.5,30.64,SE,129,0.0,0.0,97,0.00,CLR,CLR,0.00,WeatherDisplay:10.37,2013-08-31 11:42:00,
2013-08-31 07:47:00,67.2,66.3,30.64,SE,129,0.0,1.0,97,0.00,CLR,CLR,0.00,WeatherDisplay:10.37,2013-08-31 11:47:00,
2013-08-31 07:52:00,67.1,66.2,30.64,SE,129,0.0,0.0,97,0.00,CLR,CLR,0.00,WeatherDisplay:10.37,2013-08-31 11:52:00,
2013-08-31 07:57:00,67.1,66.2,30.65,SE,129,0.0,0.0,97,0.00,CLR,CLR,0.00,WeatherDisplay:10.37,2013-08-31 11:57:00,
2013-08-31 08:02:00,67.5,66.9,30.65,SE,129,0.0,0.0,98,0.00,CLR,CLR,0.00,WeatherDisplay:10.37,2013-08-31 12:02:00,
2013-08-31 08:07:00,67.8,67.2,30.65,SE,129,0.0,0.0,98,0.00,CLR,CLR,0.00,WeatherDisplay:10.37,2013-08-31 12:07:00,
2013-08-31 08:12:00,68.0,67.4,30.65,SE,129,0.0,0.0,98,0.00,CLR,CLR,0.00,WeatherDisplay:10.37,2013-08-31 12:12:00,
2013-08-31 08:17:00,68.7,68.1,30.65,SE,129,0.0,2.0,98,0.00,CLR,CLR,0.00,WeatherDisplay:10.37,2013-08-31 12:17:00,
2013-08-31 08:22:00,69.4,68.9,30.65,SE,129,0.0,2.0,98,0.00,CLR,CLR,0.00,WeatherDisplay:10.37,2013-08-31 12:22:00,
2013-08-31 08:27:00,70.0,69.7,30.65,SE,129,1.0,6.0,99,0.00,CLR,CLR,0.00,WeatherDisplay:10.37,2013-08-31 12:27:00,
2013-08-31 08:32:00,70.5,70.2,30.66,South,175,0.0,5.0,99,0.00,CLR,CLR,0.00,WeatherDisplay:10.37,2013-08-31 12:32:00,
2013-08-31 08:37:00,70.8,70.2,30.66,SSW,209,0.0,1.0,98,0.00,CLR,CLR,0.00,WeatherDisplay:10.37,2013-08-31 12:37:00,
2013-08-31 08:42:00,71.1,70.5,30.66,SSW,209,0.0,2.0,98,0.00,CLR,CLR,0.00,WeatherDisplay:10.37,2013-08-31 12:42:00,
2013-08-31 08:47:00,71.7,71.1,30.66,SSW,209,0.0,3.0,98,0.00,CLR,CLR,0.00,WeatherDisplay:10.37,2013-08-31 12:47:00,
2013-08-31 08:52:00,72.3,71.7,30.66,SSW,209,1.0,3.0,98,0.00,CLR,CLR,0.00,WeatherDisplay:10.37,2013-08-31 12:52:00,
2013-08-31 08:57:00,72.6,72.0,30.66,SSW,209,2.0,4.0,98,0.00,CLR,CLR,0.00,WeatherDisplay:10.37,2013-08-31 12:57:00,
2013-08-31 09:02:00,73.3,72.4,30.66,SSW,210,1.0,6.0,97,0.00,CLR,CLR,0.00,WeatherDisplay:10.37,2013-08-31 13:02:00,
2013-08-31 09:07:00,73.9,72.3,30.66,SSW,205,2.0,6.0,95,0.00,CLR,CLR,0.00,WeatherDisplay:10.37,2013-08-31 13:07:00,
2013-08-31 09:12:00,74.4,72.6,30.66,SSW,195,0.0,4.0,94,0.00,CLR,CLR,0.00,WeatherDisplay:10.37,2013-08-31 13:12:00,
2013-08-31 09:17:00,74.8,72.7,30.66,SW,226,1.0,6.0,93,0.00,CLR,CLR,0.00,WeatherDisplay:10.37,2013-08-31 13:17:00,
2013-08-31 09:22:00,75.1,72.6,30.66,SW,233,3.0,6.0,92,0.00,CLR,CLR,0.00,WeatherDisplay:10.37,2013-08-31 13:22:00,
2013-08-31 09:27:00,75.6,72.8,30.66,SW,227,2.0,5.0,91,0.00,CLR,CLR,0.00,WeatherDisplay:10.37,2013-08-31 13:27:00,
2013-08-31 09:32:00,76.1,73.0,30.66,SW,228,1.0,5.0,90,0.00,CLR,CLR,0.00,WeatherDisplay:10.37,2013-08-31 13:32:00,
2013-08-31 09:37:00,76.6,73.1,30.66,SW,216,3.0,6.0,89,0.00,CLR,CLR,0.00,WeatherDisplay:10.37,2013-08-31 13:37:00,
2013-08-31 09:42:00,77.1,73.6,30.66,SSW,205,1.0,4.0,89,0.00,CLR,CLR,0.00,WeatherDisplay:10.37,2013-08-31 13:42:00,
2013-08-31 09:47:00,77.5,73.0,30.66,SSW,211,1.0,6.0,86,0.00,CLR,CLR,0.00,WeatherDisplay:10.37,2013-08-31 13:47:00,
2013-08-31 09:52:00,77.7,72.9,30.67,WSW,244,5.0,6.0,85,0.00,CLR,CLR,0.00,WeatherDisplay:10.37,2013-08-31 13:52:00,
2013-08-31 09:57:00,77.7,72.1,30.67,WSW,253,3.0,9.0,83,0.00,CLR,CLR,0.00,WeatherDisplay:10.37,2013-08-31 13:57:00,
2013-08-31 10:02:00,77.4,71.8,30.67,West,271,2.0,10.0,83,0.00,CLR,CLR,0.00,WeatherDisplay:10.37,2013-08-31 14:02:00,
2013-08-31 10:07:00,77.0,71.5,30.67,West,279,6.0,8.0,83,0.00,CLR,CLR,0.00,WeatherDisplay:10.37,2013-08-31 14:07:00,
2013-08-31 10:12:00,76.6,71.4,30.67,West,274,0.0,4.0,84,0.00,CLR,CLR,0.00,WeatherDisplay:10.37,2013-08-31 14:12:00,
2013-08-31 10:17:00,76.3,71.1,30.68,West,280,2.0,5.0,84,0.00,CLR,CLR,0.00,WeatherDisplay:10.37,2013-08-31 14:17:00,
2013-08-31 10:22:00,76.1,70.9,30.68,West,280,6.0,10.0,84,0.00,CLR,CLR,0.00,WeatherDisplay:10.37,2013-08-31 14:22:00,
2013-08-31 10:27:00,76.1,71.3,30.68,West,273,1.0,5.0,85,0.00,CLR,CLR,0.00,WeatherDisplay:10.37,2013-08-31 14:27:00,
2013-08-31 10:32:00,76.3,71.4,30.68,WSW,257,2.0,6.0,85,0.00,CLR,CLR,0.00,WeatherDisplay:10.37,2013-08-31 14:32:00,
2013-08-31 10:37:00,76.5,71.7,30.68,West,261,3.0,8.0,85,0.00,CLR,CLR,0.00,WeatherDisplay:10.37,2013-08-31 14:37:00,
2013-08-31 10:42:00,76.7,71.5,30.68,West,268,2.0,12.0,84,0.00,CLR,CLR,0.00,WeatherDisplay:10.37,2013-08-31 14:42:00,
2013-08-31 10:47:00,77.2,72.0,30.67,West,268,3.0,8.0,84,0.00,CLR,CLR,0.00,WeatherDisplay:10.37,2013-08-31 14:47:00,
2013-08-31 10:52:00,77.5,72.3,30.68,West,262,2.0,6.0,84,0.00,CLR,CLR,0.00,WeatherDisplay:10.37,2013-08-31 14:52:00,
2013-08-31 10:57:00,77.7,72.5,30.68,West,260,2.0,8.0,84,0.00,CLR,CLR,0.00,WeatherDisplay:10.37,2013-08-31 14:57:00,
2013-08-31 11:02:00,77.7,72.1,30.68,WSW,251,2.0,8.0,83,0.00,CLR,CLR,0.00,WeatherDisplay:10.37,2013-08-31 15:02:00,
2013-08-31 11:07:00,77.9,72.6,30.67,WSW,254,1.0,5.0,84,0.00,CLR,CLR,0.00,WeatherDisplay:10.37,2013-08-31 15:07:00,
2013-08-31 11:12:00,78.5,72.9,30.67,WSW,256,1.0,4.0,83,0.00,CLR,CLR,0.00,WeatherDisplay:10.37,2013-08-31 15:12:00,
2013-08-31 11:17:00,79.1,74.6,30.67,West,262,0.0,5.0,86,0.00,CLR,CLR,0.00,WeatherDisplay:10.37,2013-08-31 15:17:00,
2013-08-31 11:22:00,79.6,73.6,30.67,West,274,2.0,9.0,82,0.00,CLR,CLR,0.00,WeatherDisplay:10.37,2013-08-31 15:22:00,
2013-08-31 11:27:00,79.6,73.3,30.67,NW,304,5.0,9.0,81,0.00,CLR,CLR,0.00,WeatherDisplay:10.37,2013-08-31 15:27:00,
2013-08-31 11:32:00,79.9,73.9,30.66,NW,309,2.0,8.0,82,0.00,CLR,CLR,0.00,WeatherDisplay:10.37,2013-08-31 15:32:00,
2013-08-31 11:37:00,80.3,73.9,30.66,NW,315,1.0,5.0,81,0.00,CLR,CLR,0.00,WeatherDisplay:10.37,2013-08-31 15:37:00,
2013-08-31 11:42:00,80.4,73.3,30.66,NW,312,5.0,9.0,79,0.00,CLR,CLR,0.00,WeatherDisplay:10.37,2013-08-31 15:42:00,
2013-08-31 11:47:00,80.1,73.8,30.66,WNW,284,2.0,8.0,81,0.00,CLR,CLR,0.00,WeatherDisplay:10.37,2013-08-31 15:47:00,
2013-08-31 11:52:00,80.2,74.2,30.66,West,263,5.0,8.0,82,0.00,CLR,CLR,0.00,WeatherDisplay:10.37,2013-08-31 15:52:00,
2013-08-31 11:57:00,80.3,73.9,30.66,WNW,286,2.0,9.0,81,0.00,CLR,CLR,0.00,WeatherDisplay:10.37,2013-08-31 15:57:00,
2013-08-31 12:02:00,80.7,75.1,30.66,NW,310,1.0,7.0,83,0.00,CLR,CLR,0.00,WeatherDisplay:10.37,2013-08-31 16:02:00,
2013-08-31 12:07:00,81.1,75.4,30.65,West,260,0.0,7.0,83,0.00,CLR,CLR,0.00,WeatherDisplay:10.37,2013-08-31 16:07:00,
2013-08-31 12:12:00,81.3,74.9,30.65,West,264,5.0,8.0,81,0.00,CLR,CLR,0.00,WeatherDisplay:10.37,2013-08-31 16:12:00,
2013-08-31 12:17:00,81.0,73.9,30.65,WNW,294,2.0,8.0,79,0.00,CLR,CLR,0.00,WeatherDisplay:10.37,2013-08-31 16:17:00,
2013-08-31 12:22:00,80.9,74.2,30.66,WNW,301,5.0,12.0,80,0.00,CLR,CLR,0.00,WeatherDisplay:10.37,2013-08-31 16:22:00,
2013-08-31 12:27:00,80.8,73.7,30.65,West,281,5.0,9.0,79,0.00,CLR,CLR,0.00,WeatherDisplay:10.37,2013-08-31 16:27:00,
2013-08-31 12:32:00,80.7,73.6,30.65,West,266,1.0,7.0,79,0.00,CLR,CLR,0.00,WeatherDisplay:10.37,2013-08-31 16:32:00,
2013-08-31 12:37:00,80.8,73.6,30.65,WSW,256,0.0,8.0,79,0.00,CLR,CLR,0.00,WeatherDisplay:10.37,2013-08-31 16:37:00,
2013-08-31 12:42:00,81.4,74.2,30.65,West,261,3.0,6.0,79,0.00,CLR,CLR,0.00,WeatherDisplay:10.37,2013-08-31 16:42:00,
2013-08-31 12:47:00,81.5,74.0,30.65,WNW,295,5.0,7.0,78,0.00,CLR,CLR,0.00,WeatherDisplay:10.37,2013-08-31 16:47:00,
2013-08-31 12:52:00,81.5,73.6,30.65,WSW,250,2.0,7.0,77,0.00,CLR,CLR,0.00,WeatherDisplay:10.37,2013-08-31 16:52:00,
2013-08-31 12:57:00,81.6,74.8,30.65,WSW,245,5.0,7.0,80,0.00,CLR,CLR,0.00,WeatherDisplay:10.37,2013-08-31 16:57:00,
2013-08-31 13:02:00,81.8,73.1,30.65,West,262,2.0,7.0,75,0.00,CLR,CLR,0.00,WeatherDisplay:10.37,2013-08-31 17:02:00,
2013-08-31 13:07:00,81.7,73.8,30.65,West,270,3.0,6.0,77,0.00,CLR,CLR,0.00,WeatherDisplay:10.37,2013-08-31 17:07:00,
2013-08-31 13:12:00,81.4,73.5,30.65,WNW,299,1.0,6.0,77,0.00,CLR,CLR,0.00,WeatherDisplay:10.37,2013-08-31 17:12:00,
2013-08-31 13:17:00,81.1,74.0,30.65,NW,315,1.0,3.0,79,0.00,CLR,CLR,0.00,WeatherDisplay:10.37,2013-08-31 17:17:00,
2013-08-31 13:22:00,81.2,74.1,30.65,NW,319,0.0,2.0,79,0.00,CLR,CLR,0.00,WeatherDisplay:10.37,2013-08-31 17:22:00,
2013-08-31 13:27:00,81.5,74.7,30.65,WNW,282,1.0,6.0,80,0.00,CLR,CLR,0.00,WeatherDisplay:10.37,2013-08-31 17:27:00,
2013-08-31 13:32:00,81.7,73.8,30.65,WNW,285,2.0,4.0,77,0.00,CLR,CLR,0.00,WeatherDisplay:10.37,2013-08-31 17:32:00,
2013-08-31 13:37:00,81.9,74.8,30.64,WNW,288,1.0,5.0,79,0.00,CLR,CLR,0.00,WeatherDisplay:10.37,2013-08-31 17:37:00,
2013-08-31 13:42:00,82.4,74.5,30.64,West,275,2.0,5.0,77,0.00,CLR,CLR,0.00,WeatherDisplay:10.37,2013-08-31 17:42:00,
2013-08-31 13:47:00,82.7,73.9,30.64,West,269,0.0,5.0,75,0.00,CLR,CLR,0.00,WeatherDisplay:10.37,2013-08-31 17:47:00,
2013-08-31 13:52:00,82.6,73.0,30.64,West,270,0.0,1.0,73,0.00,CLR,CLR,0.00,WeatherDisplay:10.37,2013-08-31 17:52:00,
2013-08-31 13:57:00,82.2,73.5,30.64,West,272,0.0,3.0,75,0.00,CLR,CLR,0.00,WeatherDisplay:10.37,2013-08-31 17:57:00,
2013-08-31 14:02:00,81.7,72.6,30.64,NNW,332,0.0,5.0,74,0.00,CLR,CLR,0.00,WeatherDisplay:10.37,2013-08-31 18:02:00,
2013-08-31 14:07:00,81.5,72.8,30.64,NNW,337,0.0,1.0,75,0.00,CLR,CLR,0.00,WeatherDisplay:10.37,2013-08-31 18:07:00,
2013-08-31 14:12:00,81.5,74.0,30.64,NNW,344,0.0,1.0,78,0.00,CLR,CLR,0.00,WeatherDisplay:10.37,2013-08-31 18:12:00,
2013-08-31 14:17:00,81.4,74.3,30.64,NNW,344,0.0,1.0,79,0.00,CLR,CLR,0.00,WeatherDisplay:10.37,2013-08-31 18:17:00,
2013-08-31 14:22:00,81.1,74.0,30.64,NNW,343,0.0,3.0,79,0.00,CLR,CLR,0.00,WeatherDisplay:10.37,2013-08-31 18:22:00,
2013-08-31 14:27:00,81.0,74.2,30.64,NNW,342,0.0,3.0,80,0.00,CLR,CLR,0.00,WeatherDisplay:10.37,2013-08-31 18:27:00,
2013-08-31 14:32:00,80.8,73.3,30.64,NNW,343,0.0,3.0,78,0.00,CLR,CLR,0.00,WeatherDisplay:10.37,2013-08-31 18:32:00,
2013-08-31 14:37:00,80.9,74.5,30.64,NNW,344,0.0,0.0,81,0.00,CLR,CLR,0.00,WeatherDisplay:10.37,2013-08-31 18:37:00,
2013-08-31 14:42:00,81.2,74.1,30.64,NNW,346,1.0,6.0,79,0.00,CLR,CLR,0.00,WeatherDisplay:10.37,2013-08-31 18:42:00,
2013-08-31 14:47:00,81.2,74.1,30.64,NNW,341,1.0,5.0,79,0.00,CLR,CLR,0.00,WeatherDisplay:10.37,2013-08-31 18:47:00,
2013-08-31 14:52:00,80.9,73.0,30.64,North,350,1.0,4.0,77,0.00,CLR,CLR,0.00,WeatherDisplay:10.37,2013-08-31 18:52:00,
2013-08-31 14:57:00,80.8,74.0,30.64,North,5,1.0,7.0,80,0.00,CLR,CLR,0.00,WeatherDisplay:10.37,2013-08-31 18:57:00,
2013-08-31 15:02:00,80.8,73.7,30.64,NNW,346,3.0,5.0,79,0.00,CLR,CLR,0.00,WeatherDisplay:10.37,2013-08-31 19:02:00,
2013-08-31 15:07:00,80.7,73.2,30.64,North,350,0.0,4.0,78,0.00,CLR,CLR,0.00,WeatherDisplay:10.37,2013-08-31 19:07:00,
2013-08-31 15:12:00,81.1,74.7,30.64,NNW,334,3.0,6.0,81,0.00,CLR,CLR,0.00,WeatherDisplay:10.37,2013-08-31 19:12:00,
2013-08-31 15:17:00,81.6,75.2,30.64,NW,313,2.0,4.0,81,0.00,CLR,CLR,0.00,WeatherDisplay:10.37,2013-08-31 19:17:00,
2013-08-31 15:22:00,82.1,74.9,30.64,NW,314,1.0,5.0,79,0.00,CLR,CLR,0.00,WeatherDisplay:10.37,2013-08-31 19:22:00,
2013-08-31 15:27:00,82.4,74.8,30.64,NW,319,1.0,5.0,78,0.00,CLR,CLR,0.00,WeatherDisplay:10.37,2013-08-31 19:27:00,
2013-08-31 15:32:00,82.2,74.6,30.64,North,353,3.0,7.0,78,0.00,CLR,CLR,0.00,WeatherDisplay:10.37,2013-08-31 19:32:00,
2013-08-31 15:37:00,81.5,74.3,30.64,NNW,347,0.0,8.0,79,0.00,CLR,CLR,0.00,WeatherDisplay:10.37,2013-08-31 19:37:00,
2013-08-31 15:42:00,81.5,75.1,30.63,NNW,347,1.0,2.0,81,0.00,CLR,CLR,0.00,WeatherDisplay:10.37,2013-08-31 19:42:00,
2013-08-31 15:47:00,81.4,74.3,30.64,NNW,330,0.0,3.0,79,0.00,CLR,CLR,0.00,WeatherDisplay:10.37,2013-08-31 19:47:00,
2013-08-31 15:52:00,80.9,73.8,30.64,NNW,348,0.0,5.0,79,0.00,CLR,CLR,0.00,WeatherDisplay:10.37,2013-08-31 19:52:00,
2013-08-31 15:57:00,81.0,75.0,30.63,North,1,1.0,3.0,82,0.00,CLR,CLR,0.00,WeatherDisplay:10.37,2013-08-31 19:57:00,
2013-08-31 16:02:00,81.3,74.9,30.63,North,359,1.0,5.0,81,0.00,CLR,CLR,0.00,WeatherDisplay:10.37,2013-08-31 20:02:00,
2013-08-31 16:07:00,81.7,74.9,30.63,North,351,1.0,3.0,80,0.00,CLR,CLR,0.00,WeatherDisplay:10.37,2013-08-31 20:07:00,
2013-08-31 16:12:00,81.7,74.2,30.63,North,350,0.0,2.0,78,0.00,CLR,CLR,0.00,WeatherDisplay:10.37,2013-08-31 20:12:00,
2013-08-31 16:17:00,81.5,74.3,30.63,North,350,0.0,4.0,79,0.00,CLR,CLR,0.00,WeatherDisplay:10.37,2013-08-31 20:17:00,
2013-08-31 16:22:00,81.1,74.3,30.63,NW,318,3.0,6.0,80,0.00,CLR,CLR,0.00,WeatherDisplay:10.37,2013-08-31 20:22:00,
2013-08-31 16:27:00,80.5,73.4,30.63,NW,320,1.0,4.0,79,0.00,CLR,CLR,0.00,WeatherDisplay:10.37,2013-08-31 20:27:00,
2013-08-31 16:32:00,80.1,73.4,30.63,NNW,341,2.0,5.0,80,0.00,CLR,CLR,0.00,WeatherDisplay:10.37,2013-08-31 20:32:00,
2013-08-31 16:37:00,79.9,73.5,30.63,NNW,330,0.0,3.0,81,0.00,CLR,CLR,0.00,WeatherDisplay:10.37,2013-08-31 20:37:00,
2013-08-31 16:42:00,79.8,73.4,30.63,NW,324,0.0,8.0,81,0.00,CLR,CLR,0.00,WeatherDisplay:10.37,2013-08-31 20:42:00,
2013-08-31 16:47:00,80.0,74.0,30.63,NW,324,0.0,4.0,82,0.00,CLR,CLR,0.00,WeatherDisplay:10.37,2013-08-31 20:47:00,
2013-08-31 16:52:00,80.6,74.6,30.63,NW,326,0.0,3.0,82,0.00,CLR,CLR,0.00,WeatherDisplay:10.37,2013-08-31 20:52:00,
2013-08-31 16:57:00,81.2,74.1,30.63,North,350,2.0,5.0,79,0.00,CLR,CLR,0.00,WeatherDisplay:10.37,2013-08-31 20:57:00,
2013-08-31 17:02:00,81.2,73.7,30.63,North,359,6.0,12.0,78,0.00,CLR,CLR,0.00,WeatherDisplay:10.37,2013-08-31 21:02:00,
2013-08-31 17:07:00,81.0,73.5,30.63,North,3,5.0,8.0,78,0.00,CLR,CLR,0.00,WeatherDisplay:10.37,2013-08-31 21:07:00,
2013-08-31 17:12:00,80.8,74.0,30.63,North,349,3.0,7.0,80,0.00,CLR,CLR,0.00,WeatherDisplay:10.37,2013-08-31 21:12:00,
2013-08-31 17:17:00,80.5,73.4,30.63,NNW,342,2.0,6.0,79,0.00,CLR,CLR,0.00,WeatherDisplay:10.37,2013-08-31 21:17:00,
2013-08-31 17:22:00,80.7,73.2,30.64,North,358,2.0,7.0,78,0.00,CLR,CLR,0.00,WeatherDisplay:10.37,2013-08-31 21:22:00,
2013-08-31 17:27:00,80.6,73.9,30.64,NNW,340,3.0,7.0,80,0.00,CLR,CLR,0.00,WeatherDisplay:10.37,2013-08-31 21:27:00,
2013-08-31 17:32:00,80.9,74.1,30.64,NW,319,1.0,5.0,80,0.00,CLR,CLR,0.00,WeatherDisplay:10.37,2013-08-31 21:32:00,
2013-08-31 17:37:00,81.0,73.5,30.63,NW,306,1.0,7.0,78,0.00,CLR,CLR,0.00,WeatherDisplay:10.37,2013-08-31 21:37:00,
2013-08-31 17:42:00,80.4,73.3,30.63,NNW,338,3.0,9.0,79,0.00,CLR,CLR,0.00,WeatherDisplay:10.37,2013-08-31 21:42:00,
2013-08-31 17:47:00,79.6,72.9,30.63,North,359,2.0,8.0,80,0.00,CLR,CLR,0.00,WeatherDisplay:10.37,2013-08-31 21:47:00,
2013-08-31 17:52:00,79.2,72.9,30.63,North,350,3.0,8.0,81,0.00,CLR,CLR,0.00,WeatherDisplay:10.37,2013-08-31 21:52:00,
2013-08-31 17:57:00,78.8,72.5,30.63,NNW,343,5.0,9.0,81,0.00,CLR,CLR,0.00,WeatherDisplay:10.37,2013-08-31 21:57:00,
2013-08-31 18:02:00,78.4,72.4,30.64,NNW,335,2.0,8.0,82,0.00,CLR,CLR,0.00,WeatherDisplay:10.37,2013-08-31 22:02:00,
2013-08-31 18:07:00,78.0,72.1,30.64,NNW,346,2.0,9.0,82,0.00,CLR,CLR,0.00,WeatherDisplay:10.37,2013-08-31 22:07:00,
2013-08-31 18:12:00,77.8,72.2,30.63,North,2,3.0,10.0,83,0.00,CLR,CLR,0.00,WeatherDisplay:10.37,2013-08-31 22:12:00,
2013-08-31 18:17:00,77.5,71.9,30.64,NNW,330,3.0,7.0,83,0.00,CLR,CLR,0.00,WeatherDisplay:10.37,2013-08-31 22:17:00,
2013-08-31 18:22:00,77.4,72.2,30.64,NW,320,0.0,6.0,84,0.00,CLR,CLR,0.00,WeatherDisplay:10.37,2013-08-31 22:22:00,
2013-08-31 18:27:00,77.4,71.9,30.63,NNW,348,3.0,7.0,83,0.00,CLR,CLR,0.00,WeatherDisplay:10.37,2013-08-31 22:27:00,
2013-08-31 18:32:00,77.4,71.8,30.64,NNW,346,1.0,9.0,83,0.00,CLR,CLR,0.00,WeatherDisplay:10.37,2013-08-31 22:32:00,
2013-08-31 18:37:00,77.3,72.1,30.64,NNW,329,1.0,6.0,84,0.00,CLR,CLR,0.00,WeatherDisplay:10.37,2013-08-31 22:37:00,
2013-08-31 18:42:00,77.1,71.9,30.64,NNW,333,0.0,6.0,84,0.00,CLR,CLR,0.00,WeatherDisplay:10.37,2013-08-31 22:42:00,
2013-08-31 18:47:00,76.9,71.7,30.63,North,6,1.0,8.0,84,0.00,CLR,CLR,0.00,WeatherDisplay:10.37,2013-08-31 22:47:00,
2013-08-31 18:52:00,76.8,71.9,30.63,NNE,14,1.0,5.0,85,0.00,CLR,CLR,0.00,WeatherDisplay:10.37,2013-08-31 22:52:00,
2013-08-31 18:57:00,76.7,71.8,30.63,North,357,0.0,5.0,85,0.00,CLR,CLR,0.00,WeatherDisplay:10.37,2013-08-31 22:57:00,
2013-08-31 19:02:00,76.6,71.4,30.63,North,349,1.0,5.0,84,0.00,CLR,CLR,0.00,WeatherDisplay:10.37,2013-08-31 23:02:00,
2013-08-31 19:07:00,76.4,71.6,30.63,NNW,337,2.0,7.0,85,0.00,CLR,CLR,0.00,WeatherDisplay:10.37,2013-08-31 23:07:00,
2013-08-31 19:12:00,76.3,71.5,30.63,NNW,337,0.0,2.0,85,0.00,CLR,CLR,0.00,WeatherDisplay:10.37,2013-08-31 23:12:00,
2013-08-31 19:17:00,76.2,71.7,30.64,NNW,340,0.0,2.0,86,0.00,CLR,CLR,0.00,WeatherDisplay:10.37,2013-08-31 23:17:00,
2013-08-31 19:22:00,76.0,71.5,30.64,NNW,340,0.0,3.0,86,0.00,CLR,CLR,0.00,WeatherDisplay:10.37,2013-08-31 23:22:00,
2013-08-31 19:27:00,75.7,71.6,30.64,NW,326,2.0,4.0,87,0.00,CLR,CLR,0.00,WeatherDisplay:10.37,2013-08-31 23:27:00,
2013-08-31 19:32:00,75.4,71.2,30.64,NW,322,0.0,1.0,87,0.00,CLR,CLR,0.00,WeatherDisplay:10.37,2013-08-31 23:32:00,
2013-08-31 19:37:00,75.1,71.3,30.64,NW,319,1.0,3.0,88,0.00,CLR,CLR,0.00,WeatherDisplay:10.37,2013-08-31 23:37:00,
2013-08-31 19:42:00,74.8,71.0,30.64,NW,319,0.0,1.0,88,0.00,CLR,CLR,0.00,WeatherDisplay:10.37,2013-08-31 23:42:00,
2013-08-31 19:47:00,74.6,70.8,30.64,NW,319,0.0,0.0,88,0.00,CLR,CLR,0.00,WeatherDisplay:10.37,2013-08-31 23:47:00,
2013-08-31 19:52:00,74.4,70.9,30.65,NW,319,0.0,0.0,89,0.00,CLR,CLR,0.00,WeatherDisplay:10.37,2013-08-31 23:52:00,
2013-08-31 19:57:00,74.1,70.6,30.65,NW,319,0.0,0.0,89,0.00,CLR,CLR,0.00,WeatherDisplay:10.37,2013-08-31 23:57:00,
2013-08-31 20:02:00,73.8,70.4,30.65,NW,319,0.0,0.0,89,0.00,CLR,CLR,0.00,WeatherDisplay:10.37,2013-09-01 00:02:00,
2013-08-31 20:07:00,73.4,70.3,30.65,NW,319,0.0,0.0,90,0.00,CLR,CLR,0.00,WeatherDisplay:10.37,2013-09-01 00:07:00,
2013-08-31 20:12:00,73.1,70.3,30.65,NW,319,0.0,0.0,91,0.00,CLR,CLR,0.00,WeatherDisplay:10.37,2013-09-01 00:12:00,
2013-08-31 20:17:00,72.6,69.8,30.66,NW,319,0.0,0.0,91,0.00,CLR,CLR,0.00,WeatherDisplay:10.37,2013-09-01 00:17:00,
2013-08-31 20:22:00,72.2,69.5,30.66,NW,319,0.0,0.0,91,0.00,CLR,CLR,0.00,WeatherDisplay:10.37,2013-09-01 00:22:00,
2013-08-31 20:27:00,72.0,69.5,30.66,NW,319,0.0,0.0,92,0.00,CLR,CLR,0.00,WeatherDisplay:10.37,2013-09-01 00:27:00,
2013-08-31 20:32:00,71.8,69.7,30.66,NW,319,0.0,0.0,93,0.00,CLR,CLR,0.00,WeatherDisplay:10.37,2013-09-01 00:32:00,
2013-08-31 20:37:00,71.8,69.7,30.66,NW,319,0.0,0.0,93,0.00,CLR,CLR,0.00,WeatherDisplay:10.37,2013-09-01 00:37:00,
2013-08-31 20:42:00,71.8,70.0,30.67,NW,319,0.0,0.0,94,0.00,CLR,CLR,0.00,WeatherDisplay:10.37,2013-09-01 00:42:00,
2013-08-31 20:47:00,71.8,70.0,30.67,NW,319,0.0,0.0,94,0.00,CLR,CLR,0.00,WeatherDisplay:10.37,2013-09-01 00:47:00,
2013-08-31 20:52:00,71.7,69.9,30.67,NW,319,0.0,0.0,94,0.00,CLR,CLR,0.00,WeatherDisplay:10.37,2013-09-01 00:52:00,
2013-08-31 20:57:00,71.5,69.7,30.68,NW,319,0.0,0.0,94,0.00,CLR,CLR,0.00,WeatherDisplay:10.37,2013-09-01 00:57:00,
2013-08-31 21:02:00,71.1,69.3,30.68,NW,319,0.0,0.0,94,0.00,CLR,CLR,0.00,WeatherDisplay:10.37,2013-09-01 01:02:00,
2013-08-31 21:07:00,70.8,69.0,30.68,NW,319,0.0,0.0,94,0.00,CLR,CLR,0.00,WeatherDisplay:10.37,2013-09-01 01:07:00,
2013-08-31 21:12:00,70.6,68.8,30.68,NW,319,0.0,0.0,94,0.00,CLR,CLR,0.00,WeatherDisplay:10.37,2013-09-01 01:12:00,
2013-08-31 21:17:00,70.3,68.5,30.68,NW,319,0.0,0.0,94,0.00,CLR,CLR,0.00,WeatherDisplay:10.37,2013-09-01 01:17:00,
2013-08-31 21:22:00,70.1,68.3,30.68,NW,319,0.0,0.0,94,0.00,CLR,CLR,0.00,WeatherDisplay:10.37,2013-09-01 01:22:00,
2013-08-31 21:27:00,69.9,68.4,30.68,NW,319,0.0,0.0,95,0.00,CLR,CLR,0.00,WeatherDisplay:10.37,2013-09-01 01:27:00,
2013-08-31 21:32:00,69.8,68.3,30.68,NW,319,0.0,0.0,95,0.00,CLR,CLR,0.00,WeatherDisplay:10.37,2013-09-01 01:32:00,
2013-08-31 21:37:00,69.8,68.6,30.68,NW,319,0.0,0.0,96,0.00,CLR,CLR,0.00,WeatherDisplay:10.37,2013-09-01 01:37:00,
2013-08-31 21:42:00,69.9,68.7,30.69,NW,319,0.0,0.0,96,0.00,CLR,CLR,0.00,WeatherDisplay:10.37,2013-09-01 01:42:00,
2013-08-31 21:47:00,70.0,68.8,30.68,NW,319,0.0,0.0,96,0.00,CLR,CLR,0.00,WeatherDisplay:10.37,2013-09-01 01:47:00,
2013-08-31 21:52:00,70.1,68.9,30.68,NW,319,0.0,0.0,96,0.00,CLR,CLR,0.00,WeatherDisplay:10.37,2013-09-01 01:52:00,
2013-08-31 21:57:00,70.2,69.0,30.68,NW,319,0.0,0.0,96,0.00,CLR,CLR,0.00,WeatherDisplay:10.37,2013-09-01 01:57:00,
2013-08-31 22:02:00,70.2,69.0,30.69,NW,319,0.0,0.0,96,0.00,CLR,CLR,0.00,WeatherDisplay:10.37,2013-09-01 02:02:00,
2013-08-31 22:07:00,70.2,69.0,30.68,NW,319,0.0,0.0,96,0.00,CLR,CLR,0.00,WeatherDisplay:10.37,2013-09-01 02:07:00,
2013-08-31 22:12:00,70.2,69.0,30.68,NW,319,0.0,0.0,96,0.00,CLR,CLR,0.00,WeatherDisplay:10.37,2013-09-01 02:12:00,
2013-08-31 22:17:00,70.2,69.0,30.68,NW,319,0.0,0.0,96,0.00,CLR,CLR,0.00,WeatherDisplay:10.37,2013-09-01 02:17:00,
2013-08-31 22:22:00,70.1,68.9,30.68,NW,319,0.0,0.0,96,0.00,CLR,CLR,0.00,WeatherDisplay:10.37,2013-09-01 02:22:00,
2013-08-31 22:27:00,70.0,68.8,30.68,NW,319,0.0,0.0,96,0.00,CLR,CLR,0.00,WeatherDisplay:10.37,2013-09-01 02:27:00,
2013-08-31 22:32:00,69.9,68.7,30.67,NW,319,0.0,0.0,96,0.00,CLR,CLR,0.00,WeatherDisplay:10.37,2013-09-01 02:32:00,
2013-08-31 22:37:00,69.8,68.9,30.67,NW,319,0.0,0.0,97,0.00,CLR,CLR,0.00,WeatherDisplay:10.37,2013-09-01 02:37:00,
2013-08-31 22:42:00,69.7,68.8,30.67,NW,319,0.0,0.0,97,0.00,CLR,CLR,0.00,WeatherDisplay:10.37,2013-09-01 02:42:00,
2013-08-31 22:47:00,69.5,68.3,30.67,NW,319,0.0,0.0,96,0.00,CLR,CLR,0.00,WeatherDisplay:10.37,2013-09-01 02:47:00,
2013-08-31 22:52:00,69.3,68.1,30.67,NW,319,0.0,0.0,96,0.00,CLR,CLR,0.00,WeatherDisplay:10.37,2013-09-01 02:52:00,
2013-08-31 22:57:00,69.2,68.0,30.67,NW,319,0.0,0.0,96,0.00,CLR,CLR,0.00,WeatherDisplay:10.37,2013-09-01 02:57:00,
2013-08-31 23:02:00,68.9,67.7,30.68,NW,319,0.0,0.0,96,0.00,CLR,CLR,0.00,WeatherDisplay:10.37,2013-09-01 03:02:00,
2013-08-31 23:07:00,68.4,67.2,30.67,NW,319,0.0,0.0,96,0.00,CLR,CLR,0.00,WeatherDisplay:10.37,2013-09-01 03:07:00,
2013-08-31 23:12:00,68.0,66.8,30.67,NW,319,0.0,0.0,96,0.00,CLR,CLR,0.00,WeatherDisplay:10.37,2013-09-01 03:12:00,
2013-08-31 23:17:00,67.8,66.6,30.67,NW,319,0.0,0.0,96,0.00,CLR,CLR,0.00,WeatherDisplay:10.37,2013-09-01 03:17:00,
2013-08-31 23:22:00,67.7,66.5,30.67,NW,319,0.0,0.0,96,0.00,CLR,CLR,0.00,WeatherDisplay:10.37,2013-09-01 03:22:00,
2013-08-31 23:27:00,67.3,66.1,30.67,NW,319,0.0,0.0,96,0.00,CLR,CLR,0.00,WeatherDisplay:10.37,2013-09-01 03:27:00,
2013-08-31 23:32:00,66.9,65.7,30.67,NW,319,0.0,0.0,96,0.00,CLR,CLR,0.00,WeatherDisplay:10.37,2013-09-01 03:32:00,
2013-08-31 23:37:00,66.8,65.6,30.67,NW,319,0.0,0.0,96,0.00,CLR,CLR,0.00,WeatherDisplay:10.37,2013-09-01 03:37:00,
2013-08-31 23:42:00,66.7,65.8,30.67,NW,319,0.0,0.0,97,0.00,CLR,CLR,0.00,WeatherDisplay:10.37,2013-09-01 03:42:00,
2013-08-31 23:47:00,66.9,66.0,30.68,NW,319,0.0,0.0,97,0.00,CLR,CLR,0.00,WeatherDisplay:10.37,2013-09-01 03:47:00,
2013-08-31 23:52:00,67.1,66.2,30.68,NW,319,0.0,0.0,97,0.00,CLR,CLR,0.00,WeatherDisplay:10.37,2013-09-01 03:52:00,
2013-08-31 23:57:00,67.1,66.2,30.68,NW,319,0.0,0.0,97,0.00,CLR,CLR,0.00,WeatherDisplay:10.37,2013-09-01 03:57:00,